Temperature
15 14 14 15 15 13 14 16 16 17 16 16 15 13 11 10 8 8 7 6 6 6 6 5 5 4 4 4 3 3 3 2 2 1 1 1 1 0 0 -0 -1 -1 -1 -1
14 12 12 12 14 14 13 14 15 15 15 15 12 11 10 9 8 7 6 6 5 5 5 4 4 4 3 3 3 2 2 1 1 1 0 0 -0 -0 -1 -1 -1 -2 -2 -2
15 11 12 13 14 14 13 13 13 13 14 12 10 9 9 8 7 6 6 5 5 4 4 4 3 3 2 2 2 2 1 1 0 0 -0 -1 -1 -1 -2 -2 -2 -2 -2 -2
13 12 11 15 12 12 12 12 11 11 11 10 9 8 7 7 7 6 5 5 4 4 4 3 3 2 2 2 1 1 0 0 -0 -1 -1 -1 -2 -2 -2 -2 -3 -3 -3 -3
12 13 14 14 11 11 11 11 11 10 10 8 7 7 7 6 5 5 5 4 4 3 3 3 2 2 1 1 1 0 -0 -1 -1 -1 -2 -2 -3 -3 -3 -3 -3 -3 -4 -4
11 11 12 14 10 9 11 12 10 9 9 7 7 9 9 6 5 4 4 4 3 3 2 2 2 1 1 0 -0 -0 -1 -1 -1 -2 -2 -3 -3 -3 -3 -4 -4 -4 -4 -4
11 11 13 12 9 9 11 13 9 8 7 7 7 8 6 5 4 4 3 3 3 2 2 2 1 0 0 -0 -1 -1 -1 -2 -2 -3 -3 -3 -4 -4 -4 -4 -5 -5 -5 -5
11 10 11 9 8 10 11 8 7 7 6 6 5 5 5 4 4 3 3 3 2 2 1 1 1 -0 -0 -1 -1 -2 -2 -2 -3 -3 -4 -4 -4 -5 -5 -5 -5 -5 -5 -5
11 12 9 7 8 7 7 7 6 6 5 5 5 4 4 3 3 3 2 2 1 1 1 1 0 -1 -1 -1 -2 -2 -3 -3 -4 -4 -4 -5 -5 -5 -5 -5 -6 -6 -6 -6
8 9 7 6 6 6 6 6 6 6 5 5 4 3 3 3 2 2 2 1 1 0 -0 -0 -1 -1 -2 -2 -3 -3 -4 -4 -4 -4 -5 -5 -5 -6 -6 -6 -6 -6 -6 -6
8 8 6 5 5 5 6 5 5 5 4 4 3 3 2 2 2 1 1 1 0 -0 -1 -1 -1 -2 -2 -3 -3 -4 -4 -4 -5 -5 -5 -6 -6 -6 -6 -6 -6 -6 -6 -6
10 8 7 7 5 5 5 5 4 4 3 3 2 2 2 1 1 1 0 0 -0 -1 -1 -2 -2 -2 -2 -3 -4 -4 -5 -5 -5 -6 -6 -6 -6 -6 -6 -6 -6 -6 -7 -7
6 5 5 5 5 5 4 4 3 3 3 2 2 1 1 1 1 0 -0 -1 -1 -1 -2 -2 -2 -3 -3 -4 -4 -5 -5 -6 -6 -6 -6 -7 -7 -7 -7 -6 -6 -7 -7 -7
5 5 4 4 4 4 3 3 3 2 2 2 1 1 1 0 -0 -0 -1 -1 -2 -2 -2 -3 -3 -3 -4 -4 -5 -5 -6 -6 -6 -7 -7 -7 -7 -7 -7 -7 -7 -7 -7 -7
3 4 4 3 3 3 2 2 2 2 1 1 1 0 -0 -1 -1 -1 -1 -2 -2 -2 -3 -3 -4 -4 -4 -5 -5 -6 -6 -6 -7 -7 -7 -7 -7 -7 -7 -7 -8 -8 -7 -7
3 3 3 2 2 2 2 2 1 1 1 0 0 -0 -1 -1 -1 -2 -2 -2 -3 -3 -3 -4 -4 -4 -5 -5 -6 -6 -6 -6 -7 -7 -7 -7 -8 -8 -8 -8 -8 -8 -8 -8
2 1 1 1 1 1 1 1 1 0 -0 -0 -1 -1 -1 -2 -2 -2 -2 -3 -3 -3 -4 -4 -4 -5 -5 -5 -6 -7 -7 -7 -7 -7 -8 -8 -8 -8 -8 -8 -8 -8 -8 -8
2 2 2 1 1 1 1 0 0 -0 -0 -1 -1 -2 -2 -2 -3 -3 -3 -3 -4 -4 -4 -4 -5 -5 -5 -6 -6 -7 -7 -7 -8 -8 -8 -8 -8 -8 -8 -9 -9 -9 -9 -9
1 1 1 1 0 0 0 -0 -0 -1 -1 -1 -2 -2 -3 -3 -3 -3 -4 -4 -4 -4 -4 -5 -5 -6 -6 -6 -7 -7 -7 -8 -8 -8 -8 -8 -9 -9 -9 -9 -9 -9 -9 -9
0 0 0 0 -0 -0 -0 -1 -1 -1 -2 -2 -3 -3 -3 -3 -4 -4 -4 -5 -4 -5 -5 -5 -6 -6 -6 -7 -7 -8 -8 -8 -8 -8 -9 -9 -9 -9 -9 -9 -9 -9 -9 -9
-0 -0 -0 -0 -0 -1 -1 -1 -2 -2 -2 -3 -3 -3 -3 -4 -4 -5 -5 -5 -5 -5 -6 -6 -6 -7 -7 -8 -8 -8 -8 -8 -9 -9 -9 -9 -10 -10 -10 -10 -10 -10 -10 -10
-1 -1 -1 -1 -1 -1 -1 -2 -2 -2 -3 -3 -3 -4 -4 -4 -5 -5 -5 -6 -6 -6 -7 -7 -7 -7 -8 -8 -8 -8 -8 -9 -9 -9 -10 -10 -10 -10 -10 -10 -10 -10 -10 -10
-1 -1 -1 -2 -2 -2 -2 -2 -3 -3 -3 -4 -4 -4 -5 -5 -5 -6 -6 -6 -7 -7 -7 -7 -7 -8 -8 -8 -8 -9 -9 -9 -10 -10 -10 -10 -10 -11 -11 -11 -11 -11 -10 -10
-1 -2 -2 -2 -2 -3 -3 -3 -3 -4 -4 -4 -4 -5 -5 -6 -6 -6 -7 -7 -7 -7 -8 -8 -8 -8 -8 -9 -9 -9 -10 -10 -10 -10 -11 -11 -11 -11 -11 -11 -11 -11 -11 -10
-2 -2 -2 -3 -3 -3 -3 -4 -4 -4 -5 -5 -5 -5 -6 -6 -7 -7 -7 -7 -8 -8 -8 -8 -8 -9 -9 -9 -10 -10 -10 -10 -11 -11 -11 -11 -11 -11 -11 -11 -11 -11 -11 -10
-3 -3 -3 -3 -4 -4 -4 -5 -5 -5 -6 -6 -6 -6 -7 -7 -7 -8 -8 -8 -8 -9 -9 -9 -9 -9 -10 -10 -10 -10 -10 -11 -11 -11 -11 -11 -11 -11 -11 -11 -11 -11 -11 -10
-3 -3 -4 -4 -4 -5 -5 -6 -6 -6 -7 -7 -7 -7 -8 -8 -8 -9 -9 -9 -9 -9 -10 -10 -10 -10 -10 -10 -11 -11 -11 -11 -11 -11 -11 -12 -12 -12 -12 -11 -11 -11 -11 -10
Wind_Speed
7 3 4 8 11 13 16 16 14 15 16 13 9 9 7 6 6 6 3 1 3 4 6 7 8 9 11 12 13 13 14 15 16 17 17 17 17 18 18 18 18 19 19 19
5 3 5 9 16 17 18 19 21 21 19 8 2 5 6 6 6 6 4 3 4 6 7 9 10 11 12 13 14 14 15 16 17 17 17 17 18 18 19 19 19 19 19 19
5 1 4 11 13 15 11 11 12 14 9 5 5 6 6 6 6 5 4 4 6 7 8 9 11 12 13 14 15 15 16 17 17 17 18 18 19 19 20 20 20 20 19 19
3 2 9 5 2 4 8 9 10 7 4 6 5 3 3 4 5 4 4 5 7 8 9 10 12 13 14 14 15 16 17 17 17 18 19 19 19 20 20 19 19 19 19 20
4 6 10 6 3 5 6 6 8 9 7 6 4 2 4 4 3 3 5 6 7 8 10 12 13 14 14 16 16 17 17 18 18 19 19 20 20 21 20 19 19 19 19 20
5 6 8 2 4 3 3 6 6 8 9 7 5 4 3 4 2 4 5 6 8 9 11 13 14 14 15 17 18 18 18 19 19 19 20 20 21 21 19 19 19 19 19 19
11 9 9 1 5 6 5 2 7 8 8 8 6 3 0 1 3 5 6 8 9 10 12 13 14 15 16 18 19 19 19 19 19 19 20 20 20 19 19 18 19 19 20 18
8 9 9 5 8 7 2 4 6 6 6 6 4 1 2 3 5 6 7 9 10 11 13 14 15 16 18 19 19 19 19 20 20 20 19 17 19 19 19 19 19 18 18 18
9 6 2 5 4 1 3 4 4 5 5 5 4 4 4 5 6 8 9 10 11 13 15 15 16 16 19 19 19 19 20 20 20 20 19 18 18 19 18 16 15 15 15 15
6 6 4 4 4 3 3 4 4 4 4 4 4 4 5 6 8 9 10 12 13 14 16 17 17 17 18 19 19 19 20 20 19 19 19 18 16 15 15 15 15 15 15 15
7 4 3 5 6 5 4 4 5 4 3 3 4 5 6 7 9 10 11 12 13 14 16 18 19 19 19 18 18 19 20 19 19 17 18 17 16 15 16 16 16 17 15 15
6 5 5 4 6 7 6 6 5 4 3 3 4 6 7 8 10 11 13 14 14 16 17 19 19 20 19 18 18 18 18 17 15 15 15 15 16 17 18 19 24 25 23 22
1 2 2 3 5 6 5 5 4 3 3 4 5 6 8 10 11 12 14 15 16 17 18 19 19 20 19 18 17 18 18 17 15 15 15 15 15 16 17 18 20 22 22 23
4 4 4 4 4 4 4 3 2 2 3 5 6 7 9 11 12 14 15 16 17 18 18 19 19 20 19 18 17 18 18 17 16 15 15 15 15 16 15 17 17 15 16 20
4 3 4 4 5 4 3 2 2 4 5 7 7 9 10 12 14 15 16 16 17 17 18 18 19 19 18 17 17 18 17 14 14 15 15 15 15 15 15 16 16 16 15 16
5 5 5 5 5 3 2 3 4 6 7 9 10 11 12 14 15 16 16 16 17 18 18 18 19 19 17 17 17 16 15 19 18 16 15 15 15 15 15 15 15 15 15 14
7 5 4 4 3 3 3 4 6 7 9 10 12 13 14 15 16 16 17 16 16 17 18 18 18 17 17 16 16 14 14 16 20 17 14 14 14 15 15 14 14 14 14 16
4 4 4 4 3 4 5 6 7 8 10 11 12 13 14 15 17 17 17 18 18 18 17 17 16 17 17 16 15 14 14 14 14 14 14 14 15 15 14 14 15 16 15 16
3 2 2 2 3 4 6 7 9 9 11 11 12 14 15 15 16 17 17 17 18 18 17 16 19 18 17 17 17 14 14 15 15 14 14 17 17 14 14 14 15 15 15 14
1 1 2 3 4 5 7 8 10 10 11 11 13 14 15 16 16 16 16 16 15 14 16 18 18 16 16 16 17 14 15 15 15 15 14 14 15 15 14 14 15 15 15 14
1 3 4 5 7 8 9 10 10 11 12 12 13 14 15 16 16 15 15 15 16 15 16 19 15 14 14 16 19 14 14 14 14 14 14 14 15 15 15 15 15 14 14 14
3 4 6 7 8 10 10 10 10 12 13 13 13 13 14 15 16 15 15 14 15 17 15 14 13 16 19 21 15 14 14 14 14 13 14 14 14 15 15 15 15 15 14 14
5 7 8 9 9 10 11 11 11 11 12 13 14 15 15 15 13 13 15 13 13 18 16 14 18 24 26 18 13 13 14 14 14 14 14 14 14 14 15 16 15 14 14 14
7 8 9 9 9 10 12 12 12 11 12 13 13 13 14 13 13 12 13 17 19 21 16 18 24 25 24 13 13 13 13 14 14 14 14 14 14 14 14 14 14 14 14 15
8 8 9 9 9 9 11 12 12 12 13 12 13 14 12 11 12 13 14 16 19 20 15 18 22 23 16 13 13 13 13 14 14 15 14 14 14 14 14 14 14 14 14 14
8 8 8 9 9 10 9 10 10 11 11 13 13 12 12 11 13 13 13 15 18 19 16 14 14 16 13 13 14 14 14 14 15 14 14 14 15 15 14 14 16 14 13 13
8 8 8 8 9 8 9 9 11 12 12 13 14 14 13 13 13 13 15 14 14 14 13 13 13 13 13 13 14 14 13 13 13 13 13 13 13 13 14 15 14 13 13 13
Wind_Direction
258 252 216 236 230 211 219 237 251 262 266 266 241 221 209 194 185 187 197 243 308 318 319 319 320 319 320 317 316 314 311 308 307 307 306 304 303 302 301 300 297 295 293 291
245 232 242 257 251 239 238 246 251 263 271 281 212 197 195 193 190 202 226 271 301 309 312 315 317 317 316 314 314 312 308 307 307 306 305 304 303 303 302 300 298 296 294 293
251 219 277 261 252 233 224 226 237 249 256 173 174 185 195 197 198 216 251 283 296 304 308 311 313 314 311 311 311 309 306 305 306 306 305 304 304 303 302 301 300 298 296 295
240 221 242 255 93 205 217 234 227 230 200 179 181 181 210 205 207 233 271 288 298 305 307 308 310 309 308 307 306 305 305 305 306 307 305 305 304 303 303 302 300 299 297 297
208 246 267 267 201 186 208 246 213 208 194 167 143 190 215 194 217 268 288 294 300 303 305 306 307 309 308 306 305 305 305 307 308 307 306 305 304 304 304 303 301 299 298 298
206 229 251 253 134 159 193 247 188 187 181 170 172 234 234 174 244 286 295 297 302 305 305 305 308 310 307 305 306 306 307 307 306 305 304 303 303 303 302 301 299 299 297 297
222 236 261 200 142 163 215 282 153 176 177 180 202 247 26 221 280 291 295 300 304 305 304 306 309 310 305 305 306 308 308 306 305 304 303 302 302 301 302 301 299 299 298 297
202 218 244 149 160 200 235 108 155 171 178 191 208 221 247 272 286 292 297 302 306 306 305 307 309 308 306 306 309 310 308 305 304 304 303 301 301 302 302 301 300 301 301 301
203 216 64 159 191 146 129 159 168 176 182 187 206 237 261 278 287 293 297 301 304 304 305 307 308 309 306 307 310 309 307 305 305 304 303 302 301 302 302 301 299 300 300 299
233 242 217 202 196 181 172 169 163 168 172 188 223 249 269 282 289 295 299 302 305 306 305 306 309 309 305 307 309 307 305 305 305 305 304 303 301 299 298 298 298 298 298 299
234 235 209 210 202 184 166 155 152 155 178 203 233 262 278 288 293 297 300 302 304 303 302 304 307 307 307 308 309 306 305 304 305 304 302 303 301 298 296 293 292 295 296 297
230 198 198 195 182 176 171 172 171 173 198 233 255 273 284 290 294 298 299 302 302 301 302 304 307 307 308 309 308 305 305 305 304 304 303 302 302 301 293 290 295 295 292 293
197 135 155 140 153 166 174 175 182 202 226 256 272 281 287 291 295 297 298 299 301 303 303 304 306 306 307 309 307 303 302 302 301 301 301 302 302 303 304 303 300 298 296 297
157 142 148 158 162 165 166 169 187 234 258 270 282 288 291 293 295 297 298 301 303 303 302 303 304 304 308 309 307 303 302 300 299 298 299 299 300 301 301 303 306 306 302 300
163 169 155 147 147 150 151 166 230 267 281 288 291 292 294 295 296 298 300 302 302 301 302 304 305 306 309 310 307 303 302 300 300 299 298 298 299 300 300 300 300 302 304 304
139 130 138 150 161 172 197 235 263 278 288 293 295 296 297 295 295 296 298 302 302 302 303 303 302 305 309 308 305 303 301 299 301 300 299 299 300 301 301 300 300 300 302 305
150 157 168 182 197 226 252 265 273 283 290 291 295 298 298 297 297 298 301 303 301 298 298 299 300 304 305 304 304 303 302 302 302 300 298 299 301 301 301 300 300 300 299 301
177 180 188 199 222 255 274 282 285 288 289 293 297 297 297 298 299 301 303 304 302 299 298 300 302 305 304 303 304 302 300 298 300 300 300 300 301 301 301 300 300 300 300 301
150 165 196 232 253 266 277 284 288 289 291 293 295 295 296 295 296 298 301 301 299 300 302 306 307 306 303 303 304 300 298 298 300 300 300 301 303 301 300 299 300 300 300 300
144 216 260 276 279 275 279 284 289 290 292 294 294 294 295 297 299 300 299 295 291 293 299 303 305 303 302 303 304 300 299 300 301 302 303 302 301 302 301 300 300 301 301 299
260 275 280 282 287 287 286 288 290 290 293 293 291 291 293 296 297 297 297 296 297 302 304 304 304 301 303 305 305 301 301 301 302 301 302 302 302 302 302 301 301 301 300 299
277 282 287 290 291 292 293 292 288 288 291 291 290 290 292 295 297 296 290 289 296 303 306 302 301 301 306 307 304 302 302 301 301 300 300 300 300 301 301 302 302 301 299 298
284 286 288 290 291 292 293 290 287 287 287 289 291 292 292 294 295 294 296 298 301 303 305 299 301 305 308 309 303 302 301 300 300 301 300 300 299 299 300 301 301 300 299 299
287 288 288 291 291 288 288 290 290 288 286 287 285 284 287 291 292 289 290 298 303 303 302 300 304 307 310 308 303 302 300 299 300 300 300 301 301 300 300 300 300 300 299 299
286 286 286 287 287 285 287 291 293 291 290 290 290 290 287 285 288 295 298 300 303 304 302 303 305 308 309 303 302 301 300 298 298 300 300 302 301 301 300 300 300 300 300 298
285 285 284 281 280 283 287 289 291 294 296 296 297 297 297 295 295 297 298 301 301 302 303 302 304 305 304 303 302 301 300 300 301 301 299 300 300 300 299 300 300 300 298 298
285 284 284 285 285 283 285 288 290 293 295 296 298 300 300 300 299 301 301 301 302 303 303 303 304 304 303 302 302 301 300 300 300 300 300 300 300 300 300 300 300 299 298 298
Height
1514 1518 1519 1517 1517 1521 1519 1511 1510 1501 1502 1503 1508 1514 1517 1519 1520 1522 1522 1522 1522 1521 1520 1517 1515 1512 1508 1504 1500 1496 1490 1485 1480 1474 1469 1463 1457 1451 1446 1440 1434 1428 1422 1417
1517 1520 1521 1519 1512 1511 1512 1509 1505 1503 1502 1503 1509 1512 1514 1516 1518 1519 1520 1519 1519 1517 1515 1513 1510 1507 1503 1499 1494 1489 1484 1478 1473 1467 1461 1455 1449 1443 1437 1431 1425 1419 1413 1408
1512 1521 1518 1510 1499 1501 1505 1503 1503 1502 1501 1506 1509 1511 1512 1514 1515 1516 1516 1516 1515 1513 1511 1509 1506 1502 1498 1493 1488 1483 1477 1471 1466 1460 1454 1448 1441 1435 1429 1422 1416 1410 1405 1399
1515 1519 1520 1495 1500 1499 1500 1501 1502 1502 1504 1506 1508 1510 1511 1512 1513 1514 1513 1513 1511 1509 1507 1504 1501 1496 1492 1487 1482 1476 1470 1464 1459 1452 1446 1440 1433 1427 1421 1414 1408 1401 1395 1390
1516 1510 1500 1495 1498 1500 1500 1497 1498 1500 1503 1506 1508 1509 1509 1509 1510 1511 1510 1509 1507 1505 1502 1499 1495 1491 1486 1480 1475 1470 1464 1458 1452 1445 1438 1432 1425 1419 1413 1406 1399 1393 1387 1381
1514 1514 1506 1491 1498 1499 1500 1495 1496 1498 1501 1504 1506 1506 1505 1507 1507 1507 1506 1505 1503 1500 1497 1494 1490 1485 1479 1474 1469 1463 1457 1450 1444 1438 1431 1424 1417 1411 1404 1398 1391 1384 1378 1372
1507 1506 1492 1492 1497 1500 1499 1490 1495 1497 1499 1502 1503 1504 1505 1504 1504 1503 1502 1501 1498 1495 1492 1488 1484 1478 1473 1467 1462 1456 1449 1442 1436 1430 1423 1416 1409 1403 1396 1389 1383 1376 1370 1364
1501 1504 1496 1494 1495 1494 1491 1493 1494 1496 1498 1500 1501 1501 1501 1501 1501 1500 1498 1496 1493 1490 1486 1482 1477 1472 1466 1460 1454 1448 1441 1434 1428 1422 1415 1408 1401 1395 1388 1382 1375 1368 1362 1356
1490 1488 1489 1490 1491 1491 1492 1493 1494 1495 1497 1498 1498 1499 1499 1498 1497 1496 1494 1491 1488 1484 1480 1475 1471 1466 1459 1452 1446 1439 1433 1426 1420 1413 1407 1401 1394 1387 1381 1375 1368 1361 1355 1349
1490 1486 1488 1489 1489 1490 1491 1492 1492 1494 1495 1496 1496 1496 1496 1495 1493 1491 1489 1486 1482 1478 1473 1468 1464 1458 1452 1445 1439 1432 1425 1418 1412 1405 1398 1392 1387 1380 1374 1368 1362 1355 1349 1343
1485 1485 1487 1486 1487 1488 1489 1490 1491 1492 1493 1493 1493 1493 1492 1491 1489 1486 1483 1480 1476 1471 1466 1460 1455 1450 1444 1438 1431 1424 1417 1411 1404 1398 1391 1384 1378 1373 1367 1361 1356 1349 1343 1337
1477 1479 1481 1482 1483 1485 1486 1488 1489 1490 1490 1490 1490 1489 1488 1486 1484 1481 1477 1473 1469 1464 1459 1453 1448 1442 1436 1430 1424 1417 1410 1403 1397 1390 1384 1377 1370 1363 1358 1354 1347 1342 1336 1331
1477 1477 1479 1480 1481 1483 1485 1486 1487 1487 1488 1487 1487 1486 1484 1481 1478 1475 1471 1467 1462 1457 1451 1446 1440 1434 1428 1422 1416 1409 1403 1396 1389 1383 1377 1370 1364 1357 1349 1343 1339 1333 1328 1322
1475 1476 1478 1479 1480 1481 1483 1484 1485 1485 1485 1484 1483 1481 1479 1476 1472 1468 1464 1460 1455 1449 1444 1438 1432 1426 1421 1414 1408 1401 1395 1389 1382 1376 1370 1363 1357 1351 1344 1336 1329 1323 1319 1315
1473 1475 1476 1477 1479 1480 1481 1482 1482 1482 1481 1480 1478 1476 1473 1469 1466 1461 1457 1452 1447 1441 1436 1430 1424 1418 1413 1406 1400 1393 1387 1381 1375 1369 1363 1357 1351 1344 1338 1331 1324 1317 1311 1307
1472 1473 1475 1476 1477 1478 1479 1479 1479 1478 1477 1475 1473 1470 1467 1463 1459 1454 1450 1445 1439 1433 1428 1422 1416 1410 1405 1399 1392 1386 1380 1374 1368 1362 1355 1350 1344 1338 1331 1325 1319 1312 1306 1301
1470 1472 1473 1474 1475 1476 1476 1476 1475 1474 1472 1470 1467 1464 1460 1456 1451 1447 1442 1437 1432 1426 1420 1414 1408 1402 1397 1391 1385 1379 1372 1366 1361 1355 1349 1343 1337 1331 1325 1319 1313 1306 1301 1296
1469 1471 1472 1472 1473 1473 1473 1472 1471 1469 1467 1464 1461 1457 1453 1449 1444 1439 1434 1428 1423 1417 1412 1407 1401 1395 1389 1384 1378 1372 1365 1359 1353 1348 1342 1336 1330 1324 1319 1313 1306 1300 1294 1289
1468 1469 1470 1470 1471 1470 1469 1468 1466 1464 1461 1458 1454 1450 1446 1441 1436 1431 1426 1420 1414 1408 1403 1399 1393 1387 1381 1376 1371 1365 1359 1353 1347 1341 1335 1329 1323 1317 1312 1306 1300 1294 1288 1283
1467 1467 1468 1468 1467 1466 1465 1463 1460 1457 1454 1451 1447 1442 1438 1434 1429 1423 1418 1412 1407 1402 1396 1390 1385 1379 1374 1368 1363 1357 1352 1346 1340 1334 1328 1322 1316 1310 1305 1299 1294 1288 1282 1277
1465 1465 1465 1464 1463 1461 1459 1457 1454 1451 1448 1444 1440 1435 1430 1425 1421 1416 1409 1403 1398 1394 1389 1383 1377 1372 1366 1361 1356 1350 1344 1338 1333 1327 1321 1315 1309 1303 1298 1292 1287 1281 1276 1270
1463 1462 1461 1460 1458 1456 1453 1451 1448 1444 1440 1437 1433 1428 1423 1418 1413 1407 1402 1397 1391 1386 1381 1375 1370 1364 1359 1354 1348 1342 1337 1331 1325 1320 1314 1308 1303 1297 1291 1286 1280 1275 1269 1264
1459 1458 1456 1454 1452 1449 1447 1444 1441 1437 1433 1429 1425 1420 1416 1410 1405 1400 1393 1389 1384 1378 1373 1367 1362 1357 1352 1346 1340 1335 1329 1324 1318 1313 1307 1301 1296 1290 1285 1279 1273 1268 1262 1257
1454 1453 1451 1448 1446 1442 1439 1436 1433 1429 1425 1421 1417 1412 1408 1402 1396 1392 1386 1380 1376 1370 1365 1359 1355 1349 1344 1338 1333 1327 1322 1316 1311 1305 1300 1295 1289 1283 1278 1272 1266 1261 1256 1251
1449 1447 1445 1442 1439 1435 1432 1428 1425 1421 1417 1412 1408 1404 1400 1395 1389 1383 1378 1373 1367 1362 1356 1351 1346 1341 1336 1330 1325 1320 1315 1309 1304 1299 1293 1288 1282 1276 1271 1265 1260 1255 1250 1245
1443 1441 1438 1435 1432 1429 1425 1421 1417 1413 1409 1404 1399 1395 1391 1386 1381 1376 1370 1365 1359 1354 1349 1343 1338 1333 1328 1323 1318 1313 1307 1302 1297 1291 1286 1281 1275 1270 1264 1259 1254 1249 1244 1239
1436 1434 1431 1428 1425 1422 1418 1414 1410 1405 1401 1396 1391 1386 1382 1378 1373 1367 1362 1357 1352 1347 1341 1336 1331 1326 1321 1316 1310 1305 1300 1295 1290 1285 1279 1274 1269 1263 1258 1253 1248 1243 1238 1233